Weather History for LHUD - October, 2011

Change the Weather History Date:

Sunday, October 9, 2011

  Actual Average (LRAR) Record (LRAR)
Temperature  
Mean Temperature 50 °F -  
Max Temperature 57 °F 60 °F 80 °F (2001)
Min Temperature 42 °F 40 °F 33 °F (2002)
Degree Days  
Heating Degree Days 14    
Moisture  
Dew Point 41 °F    
Average Humidity 76    
Maximum Humidity 87    
Minimum Humidity 49    
Precipitation  
Precipitation 0.12 in 0.04 in - ()
Sea Level Pressure  
Sea Level Pressure 29.91 in    
Wind  
Wind Speed 9 mph ()    
Max Wind Speed 17 mph    
Max Gust Speed 33 mph    
Visibility 7.3 miles    
Events Rain , Thunderstorm    
Averages and records for this station are not official NWS values.
T = Trace of Precipitation, MM = Missing Value Source: Averaged Metar Reports

Daily Weather History Graph

Daily Weather History Graph

Search for Another Location

Airport or City:

Trip Planner

Search our weather history database for the weather conditions in past years. The results will help you decide how hot, cold, wet, or windy it might be!

Date:

Astronomy

Oct. 09, 2011 Rise Set
Actual Time 6:47 AM CEST 6:05 PM CEST
Civil Twilight 6:17 AM CEST 6:35 PM CEST
Nautical Twilight 5:43 AM CEST 7:10 PM CEST
Astronomical Twilight 5:08 AM CEST 7:44 PM CEST
Moon 4:38 PM CEST (10/9) 4:08 AM CEST (10/9)
Length of Visible Light 12h 17m
Length of Day
11h 17m
Waxing Gibbous, 94% of the Moon is Illuminated
Oct 9
Waxing Gibbous
Oct 12
Full
Oct 20
Last Quarter
Oct 26
New
Nov 2
First Quarter

Hourly Weather History & Observations

Time (CEST) Temp. Windchill Dew Point Humidity Pressure Visibility Wind Dir Wind Speed Gust Speed Precip Events Conditions
12:45 AM 46.4 °F 42.9 °F 41.0 °F 81% 29.86 in 6.2 mi NW 6.9 mph - N/A   Overcast
1:45 AM 46.4 °F 41.5 °F 39.2 °F 76% 29.83 in 6.2 mi North 10.4 mph - N/A   Mostly Cloudy
2:00 AM 47 °F - 40 °F 69% 29.83 in 16 mi North 8.9 mph - -   Partly Cloudy
2:45 AM 46.4 °F 43.5 °F 41.0 °F 81% 29.83 in - NW 5.8 mph - N/A   Clear
3:45 AM 46.4 °F 42.9 °F 41.0 °F 81% 29.83 in - NNW 6.9 mph - N/A   Clear
4:45 AM 46.4 °F 41.5 °F 41.0 °F 81% 29.83 in - NW 10.4 mph - N/A   Clear
5:45 AM 46.4 °F 42.4 °F 41.0 °F 81% 29.83 in - NNW 8.1 mph - N/A   Clear
6:15 AM 44.6 °F 39.7 °F 41.0 °F 87% 29.83 in - NNW 9.2 mph - N/A   Clear
6:45 AM 44.6 °F 40.2 °F 39.2 °F 81% 29.83 in 6.2 mi NNW 8.1 mph - N/A   Mostly Cloudy
7:15 AM 44.6 °F 39.7 °F 39.2 °F 81% 29.83 in 6.2 mi NNW 9.2 mph - N/A   Mostly Cloudy
7:45 AM 44.6 °F 39.7 °F 39.2 °F 81% 29.83 in 6.2 mi NW 9.2 mph - N/A   Mostly Cloudy
8:00 AM 45 °F - 40 °F 76% 29.84 in 19 mi NW 8.9 mph - -   Partly Cloudy
8:15 AM 44.6 °F 39.7 °F 39.2 °F 81% 29.86 in 6.2 mi NNW 9.2 mph - N/A   Mostly Cloudy
8:45 AM 44.6 °F 40.2 °F 39.2 °F 81% 29.86 in 6.2 mi NW 8.1 mph - N/A   Mostly Cloudy
9:15 AM 46.4 °F 41.1 °F 39.2 °F 76% 29.86 in 6.2 mi NNW 11.5 mph - N/A   Scattered Clouds
9:45 AM 48.2 °F - 41.0 °F 76% 29.89 in 6.2 mi North 9.2 mph - N/A   Scattered Clouds
10:15 AM 48.2 °F - 39.2 °F 71% 29.89 in 6.2 mi NNW 10.4 mph - N/A   Scattered Clouds
10:45 AM 51.8 °F - 39.2 °F 62% 29.89 in 6.2 mi NNW 11.5 mph - N/A   Partly Cloudy
11:15 AM 53.6 °F - 41.0 °F 62% 29.89 in 6.2 mi NNW 10.4 mph - N/A   Scattered Clouds
11:45 AM 53.6 °F - 39.2 °F 58% 29.89 in 6.2 mi North 11.5 mph - N/A   Partly Cloudy
12:15 PM 55.4 °F - 41.0 °F 58% 29.89 in 6.2 mi North 12.7 mph - N/A   Scattered Clouds
12:45 PM 55.4 °F - 41.0 °F 58% 29.89 in 6.2 mi North 12.7 mph - N/A   Scattered Clouds
1:15 PM 53.6 °F - 41.0 °F 62% 29.92 in 6.2 mi North 12.7 mph - N/A   Mostly Cloudy
1:45 PM 55.4 °F - 41.0 °F 58% 29.89 in 6.2 mi NNW 12.7 mph - N/A   Mostly Cloudy
2:00 PM 55 °F - 41 °F 49% 29.90 in 19 mi NNW 11.2 mph - -   Partly Cloudy
2:15 PM 55.4 °F - 42.8 °F 63% 29.89 in 6.2 mi NNW 13.8 mph - N/A   Mostly Cloudy
2:45 PM 55.4 °F - 42.8 °F 63% 29.89 in 6.2 mi NNW 17.3 mph - N/A   Mostly Cloudy
3:15 PM 50.0 °F - 41.0 °F 71% 29.92 in 5.0 mi NE 12.7 mph 33.4 mph N/A Rain , Thunderstorm Thunderstorms and Rain
3:45 PM 50.0 °F - 44.6 °F 82% 29.92 in 6.2 mi NE 8.1 mph - N/A Rain , Thunderstorm Thunderstorms and Rain
4:15 PM 50.0 °F - 44.6 °F 82% 29.92 in 6.2 mi WNW 11.5 mph - N/A   Mostly Cloudy
4:45 PM 50.0 °F - 44.6 °F 82% 29.92 in 6.2 mi NNW 10.4 mph - N/A   Mostly Cloudy
5:15 PM 50.0 °F - 44.6 °F 82% 29.95 in 6.2 mi NW 11.5 mph - N/A   Scattered Clouds
5:45 PM 50.0 °F - 44.6 °F 82% 29.95 in 6.2 mi NW 10.4 mph - N/A   Scattered Clouds
6:15 PM 48.2 °F - 44.6 °F 87% 29.98 in 5.0 mi North 11.5 mph - N/A Rain , Thunderstorm Thunderstorms and Rain
6:45 PM 50.0 °F - 44.6 °F 82% 29.98 in 6.2 mi NNW 8.1 mph - N/A   Scattered Clouds
7:15 PM 48.2 °F - 44.6 °F 87% 30.01 in 6.2 mi NNW 6.9 mph - N/A   Scattered Clouds
7:45 PM 48.2 °F - 42.8 °F 82% 30.01 in 6.2 mi North 9.2 mph - N/A   Scattered Clouds
8:00 PM 48 °F - 43 °F 75% 30.02 in 12 mi North 8.9 mph - -   Partly Cloudy
8:15 PM 46.4 °F 41.9 °F 42.8 °F 87% 30.04 in 6.2 mi NNW 9.2 mph - N/A   Partly Cloudy
8:45 PM 46.4 °F 41.1 °F 41.0 °F 81% 30.04 in - NNW 11.5 mph - N/A   Clear
9:15 PM 46.4 °F 41.5 °F 41.0 °F 81% 30.04 in - NNW 10.4 mph - N/A   Clear
9:45 PM 46.4 °F 41.9 °F 42.8 °F 87% 30.06 in - NNW 9.2 mph - N/A   Clear
10:45 PM 44.6 °F 40.2 °F 39.2 °F 81% 30.06 in - NNW 8.1 mph - N/A   Clear
11:45 PM 42.8 °F 38.0 °F 39.2 °F 87% 30.06 in - NNW 8.1 mph - N/A   Clear